EW5206 Weather Reports


Display with metric or nautical units.
time (UTC)temp
F
wind
direction
speed
MPH
gust
MPH
rain 1hr
in
rain 24hr
in
rain mn
in
humidity
%
barometer
mb
20210801071540 64 323 0.0 0.0 0.00 0.02 0.02 92 1011.9
20210801070029 65 323 0.0 0.0 0.00 0.02 0.02 92 1012.0
20210801064544 65 323 0.0 0.0 0.00 0.02 0.02 92 1012.1
20210801063030 65 323 0.0 0.0 0.00 0.02 0.02 91 1012.1
20210801061530 65 323 0.0 0.0 0.01 0.02 0.02 90 1012.0
20210801060023 66 355 0.0 2.0 0.02 0.02 0.02 87 1012.0
20210801054515 66 30 1.0 8.0 0.02 0.02 0.02 86 1012.3
20210801053047 68 65 0.0 5.0 0.02 0.02 0.02 83 1012.4
20210801051508 70 229 0.0 5.0 0.00 0.00 0.00 78 1012.8
20210801050246 71 239 0.0 2.0 0.00 0.00 0.00 73 1012.6
20210801044618 71 293 0.0 0.0 0.00 0.00 0.00 73 1012.6
20210801043200 71 360 0.0 0.0 0.00 0.00 0.00 72 1012.7
20210801041639 71 338 0.0 0.0 0.00 0.00 0.00 73 1012.7
20210801040212 72 355 0.0 0.0 0.00 0.00 0.00 72 1012.9
20210801034654 72 57 0.0 0.0 0.00 0.00 0.00 71 1012.8
20210801033130 72 57 0.0 0.0 0.00 0.00 0.00 71 1013.0
20210801031616 72 272 0.0 2.0 0.00 0.00 0.00 70 1013.1
20210801030314 72 355 0.0 2.0 0.00 0.00 0.00 69 1013.5
20210801024644 72 355 0.0 2.0 0.00 0.00 0.00 69 1013.7
20210801023206 72 180 0.0 0.0 0.00 0.00 0.00 68 1013.8
20210801021701 72 180 0.0 0.0 0.00 0.00 0.00 68 1013.7
20210801020204 73 180 0.0 0.0 0.00 0.00 0.00 67 1013.4
20210801014627 73 180 0.0 0.0 0.00 0.00 0.00 67 1013.2
20210801013207 73 180 0.0 0.0 0.00 0.00 0.00 66 1013.0
20210801011604 73 180 0.0 0.0 0.00 0.00 0.00 65 1012.8
20210801010210 74 180 0.0 0.0 0.00 0.00 0.00 64 1012.8
20210801004635 74 180 0.0 1.0 0.00 0.00 0.00 62 1012.8
20210801003121 75 180 0.0 1.0 0.00 0.00 0.00 60 1012.8
20210801001642 75 174 0.0 0.0 0.00 0.00 0.00 59 1012.6
20210801000150 76 174 0.0 2.0 0.00 0.00 0.00 58 1012.7
20210731234612 76 214 0.0 4.0 0.00 0.00 0.00 56 1012.9
20210731233128 77 13 1.0 5.0 0.00 0.00 0.00 56 1012.7
20210731231649 77 188 0.0 3.0 0.00 0.00 0.00 55 1012.6
20210731230148 78 5 0.0 4.0 0.00 0.00 0.00 53 1012.6
20210731224609 79 300 0.0 2.0 0.00 0.00 0.00 50 1012.7
20210731223109 80 323 0.0 0.0 0.00 0.00 0.00 48 1012.5
20210731221615 81 314 0.0 5.0 0.00 0.00 0.00 47 1012.7
20210731220044 81 325 0.0 3.0 0.00 0.00 0.00 53 1012.7
20210731214621 82 44 0.0 0.0 0.00 0.00 0.00 54 1012.8
20210731213229 82 205 0.0 0.0 0.00 0.00 0.00 56 1012.9
20210731211618 82 188 0.0 0.0 0.00 0.00 0.00 58 1012.9
20210731210102 82 30 0.0 0.0 0.00 0.00 0.00 55 1013.1
20210731204600 82 165 0.0 0.0 0.00 0.00 0.00 53 1013.1
20210731203055 83 338 0.0 3.0 0.00 0.00 0.00 52 1013.2
20210731201608 83 196 0.0 5.0 0.00 0.00 0.00 50 1013.3
20210731200108 83 204 0.0 3.0 0.00 0.00 0.00 52 1013.4
20210731194554 83 29 1.0 6.0 0.00 0.00 0.00 50 1013.4
20210731193113 84 181 0.0 5.0 0.00 0.00 0.00 50 1013.6
20210731191636 84 198 0.0 1.0 0.00 0.00 0.00 48 1013.6
20210731190124 83 224 0.0 4.0 0.00 0.00 0.00 48 1013.7
20210731184633 83 30 0.0 1.0 0.00 0.00 0.00 52 1013.7
20210731183116 83 137 0.0 0.0 0.00 0.00 0.00 49 1013.7
20210731181525 84 148 0.0 0.0 0.00 0.00 0.00 55 1014.0
20210731180029 82 32 0.0 0.0 0.00 0.00 0.00 52 1014.1
20210731174528 82 157 0.0 0.0 0.00 0.00 0.00 53 1014.1
20210731173017 82 5 0.0 0.0 0.00 0.00 0.00 51 1014.0
20210731171514 80 147 0.0 0.0 0.00 0.00 0.00 56 1014.3
20210731170038 79 105 0.0 0.0 0.00 0.00 0.00 60 1014.4
20210731164610 79 29 0.0 0.0 0.00 0.00 0.00 58 1014.4
20210731163024 80 206 0.0 0.0 0.00 0.00 0.00 58 1014.5
20210731161521 80 155 0.0 0.0 0.00 0.00 0.00 61 1014.6
20210731160024 79 40 0.0 0.0 0.00 0.00 0.00 60 1014.8
20210731154510 79 32 0.0 0.0 0.00 0.00 0.00 63 1015.1
20210731153003 77 184 0.0 0.0 0.00 0.00 0.00 68 1015.2
20210731151508 78 82 0.0 0.0 0.00 0.00 0.00 64 1015.3
20210731150205 77 126 0.0 0.0 0.00 0.00 0.00 66 1015.4
20210731144805 76 157 0.0 0.0 0.00 0.00 0.00 68 1015.3
20210731143233 76 96 0.0 0.0 0.00 0.00 0.00 69 1015.6
20210731141802 77 171 0.0 0.0 0.00 0.00 0.00 65 1015.6
20210731140206 76 134 0.0 0.0 0.00 0.00 0.00 69 1015.7
20210731134610 74 155 0.0 0.0 0.00 0.00 0.00 74 1015.8
20210731133141 73 197 0.0 0.0 0.00 0.00 0.00 77 1015.8
20210731131554 71 301 0.0 0.0 0.00 0.00 0.00 81 1015.8
20210731130053 70 355 0.0 0.0 0.00 0.00 0.00 82 1015.7
20210731124622 69 355 0.0 0.0 0.00 0.00 0.00 84 1015.6
20210731123053 68 355 0.0 0.0 0.00 0.00 0.00 85 1015.4
20210731121549 67 355 0.0 0.0 0.00 0.00 0.00 85 1015.3
20210731120118 67 355 0.0 0.0 0.00 0.00 0.00 86 1015.3
20210731114551 66 355 0.0 0.0 0.00 0.00 0.00 87 1015.4
20210731113159 65 355 0.0 0.0 0.00 0.00 0.00 86 1015.3
20210731111605 65 355 0.0 0.0 0.00 0.00 0.00 85 1015.3
20210731110120 65 355 0.0 0.0 0.00 0.00 0.00 85 1015.3
20210731104628 65 355 0.0 0.0 0.00 0.00 0.00 85 1015.4
20210731103051 65 355 0.0 0.0 0.00 0.00 0.00 84 1015.2
20210731101656 65 355 0.0 0.0 0.00 0.00 0.00 84 1015.2
20210731100040 65 355 0.0 0.0 0.00 0.00 0.00 83 1015.0
20210731094536 66 355 0.0 0.0 0.00 0.00 0.00 83 1014.7
20210731093058 66 355 0.0 0.0 0.00 0.00 0.00 83 1014.5
20210731091601 66 355 0.0 0.0 0.00 0.00 0.00 83 1014.3
20210731090040 65 355 0.0 0.0 0.00 0.00 0.00 83 1014.3
20210731084543 66 355 0.0 0.0 0.00 0.00 0.00 83 1014.1
20210731083055 66 355 0.0 0.0 0.00 0.00 0.00 82 1014.0
20210731081554 66 355 0.0 0.0 0.00 0.00 0.00 81 1014.0
20210731080021 67 355 0.0 0.0 0.00 0.00 0.00 80 1013.9
20210731074544 67 355 0.0 0.0 0.00 0.00 0.00 79 1014.0
20210731073111 67 355 0.0 0.0 0.00 0.00 0.00 80 1013.8